Weather History for Springfield, CO

Change the Weather History Date:

Tuesday, December 31, 2013

  Actual Average Record
Temperature  
Mean Temperature 45 °F -  
Max Temperature 65 °F 45 °F 65 °F (2013)
Min Temperature 24 °F 17 °F -4 °F (2010)
Degree Days  
Heating Degree Days 20 34  
Month to date heating degree days 1012 1014  
Since 1 July heating degree days 2124 2158  
Cooling Degree Days 0 0  
Month to date cooling degree days 0 0  
Year to date cooling degree days 1358 1028  
Moisture  
Dew Point 14 °F    
Average Humidity 35    
Maximum Humidity 58    
Minimum Humidity 12    
Precipitation  
Precipitation 0.00 in 0.01 in 12.65 in (2006)
Month to date precipitation 0.00 0.51  
Year to date precipitation 14.25 17.55  
Sea Level Pressure  
Sea Level Pressure 30.00 in    
Wind  
Wind Speed 8 mph (SW)    
Max Wind Speed 18 mph    
Max Gust Speed 27 mph    
T = Trace of Precipitation, MM = Missing Value Source: NWS Daily Summary

Daily Weather History Graph

Daily Weather History Graph

Search for Another Location

Airport:

Trip Planner

Search our weather history database for the weather conditions in past years. The results will help you decide how hot, cold, wet, or windy it might be!

Date:

Astronomy

Dec. 31, 2013 Rise Set
Actual Time 7:04 AM MST 4:43 PM MST
Civil Twilight 6:35 AM MST 5:12 PM MST
Nautical Twilight 6:02 AM MST 5:44 PM MST
Astronomical Twilight 5:31 AM MST 6:16 PM MST
Moon 6:00 AM MST (12/31) 4:20 PM MST (12/31)
Length of Visible Light 10h 36m
Length of Day
9h 38m
Waning Crescent, 1% of the Moon is Illuminated
Dec 31
Waning Crescent
Jan 1
New
Jan 7
First Quarter
Jan 15
Full
Jan 23
Last Quarter

Hourly Weather History & Observations

Time (MST) Temp. Windchill Dew Point Humidity Pressure Visibility Wind Dir Wind Speed Gust Speed Precip Events Conditions
12:56 AM 28.0 °F 18.1 °F 15.1 °F 58% 30.17 in - SSW 11.5 mph - N/A   Unknown
1:56 AM 34.0 °F 23.8 °F 16.0 °F 48% 30.13 in - SSW 16.1 mph 26.5 mph N/A   Unknown
2:56 AM 32.0 °F 22.5 °F 16.0 °F 52% 30.11 in - SSW 12.7 mph - N/A   Unknown
3:56 AM 34.0 °F 24.2 °F 17.1 °F 50% 30.06 in - SW 15.0 mph 21.9 mph N/A   Unknown
4:56 AM 34.0 °F 23.8 °F 16.0 °F 48% 30.07 in - SW 16.1 mph - N/A   Unknown
5:56 AM 32.0 °F 23.6 °F 16.0 °F 52% 30.09 in - SSW 10.4 mph - N/A   Unknown
6:56 AM 30.0 °F 25.2 °F 16.0 °F 56% 30.11 in - Variable 4.6 mph - N/A   Unknown
7:56 AM 35.1 °F 26.9 °F 17.1 °F 48% 30.09 in - SW 11.5 mph - N/A   Unknown
8:56 AM 37.9 °F 30.5 °F 18.0 °F 45% 30.09 in - SW 11.5 mph - N/A   Unknown
9:56 AM 48.9 °F - 16.0 °F 27% 30.04 in - WSW 6.9 mph - N/A   Unknown
10:56 AM 53.1 °F - 17.1 °F 24% 30.01 in - South 6.9 mph - N/A   Unknown
11:56 AM 57.9 °F - 16.0 °F 19% 29.94 in - Variable 3.5 mph - N/A   Unknown
12:56 PM 63.0 °F - 15.1 °F 16% 29.91 in - Variable 3.5 mph - N/A   Unknown
1:56 PM 64.9 °F - 10.0 °F 12% 29.87 in - NNW 12.7 mph 17.3 mph N/A   Unknown
2:56 PM 62.1 °F - 10.9 °F 13% 29.89 in - NNE 10.4 mph - N/A   Unknown
3:56 PM 57.0 °F - 12.9 °F 18% 29.90 in - SSE 6.9 mph - N/A   Unknown
4:56 PM 44.1 °F 40.8 °F 14.0 °F 30% 29.95 in - ESE 5.8 mph - N/A   Unknown
5:56 PM 36.0 °F - 12.0 °F 37% 29.99 in - Calm Calm - N/A   Unknown
6:56 PM 28.9 °F - 10.9 °F 47% 30.01 in - Calm Calm - N/A   Unknown
7:56 PM 26.1 °F - 10.9 °F 53% 29.99 in - Calm Calm - N/A   Unknown
8:56 PM 28.9 °F 19.8 °F 12.0 °F 49% 29.96 in - WNW 10.4 mph - N/A   Unknown
9:56 PM 28.9 °F 20.4 °F 12.0 °F 49% 29.93 in - WNW 9.2 mph - N/A   Unknown
10:56 PM 27.0 °F 20.5 °F 12.0 °F 53% 29.91 in - WNW 5.8 mph - N/A   Unknown
11:56 PM 27.0 °F 18.0 °F 14.0 °F 58% 29.88 in - NNW 9.2 mph - N/A   Unknown